Location: Lane
(33.5226°N, 79.8788°W)
Time: 22:20:26
(UTC+00:00)

Tiros 1 - Pass Details

Date: 03 October 2022
Orbit: 629 x 662 km, 48.4° (Epoch: 08 December)

Event Time Altitude Azimuth Distance (km) Brightness Sun altitude
Exits shadow 08:12:57 12° 32° (NNE) 1,915 10.1 -38.0°
Drops below altitude 10° 08:13:46 10° 42° (NE) 2,054 10.3 -37.8°
Sets 08:17:10 0° 67° (ENE) 2,955 11.5 -37.2°
